Time,TemperatureF,DewpointF,PressureIn,WindDirection,WindDirectionDegrees,WindSpeedMPH,WindSpeedGustMPH,Humidity,HourlyPrecipIn,Conditions,Clouds,dailyrainin,SoftwareType,DateUTC
2013-03-12 00:30:00,22.1,18.0,29.88,WSW,251,0.0,0.0,85,0.00,,,0.00,weatherlink.com 1.10,2013-03-12 05:30:00,
2013-03-12 00:45:00,21.7,18.0,29.88,WSW,251,0.0,0.0,86,0.00,,,0.00,weatherlink.com 1.10,2013-03-12 05:45:00,
2013-03-12 00:59:00,21.4,18.0,29.89,WSW,251,0.0,0.0,86,0.00,,,0.00,weatherlink.com 1.10,2013-03-12 05:59:00,
2013-03-12 01:15:00,21.3,18.0,29.89,WSW,251,0.0,0.0,88,0.00,,,0.00,weatherlink.com 1.10,2013-03-12 06:15:00,
2013-03-12 01:30:00,21.3,18.0,29.88,WSW,251,0.0,0.0,87,0.00,,,0.00,weatherlink.com 1.10,2013-03-12 06:30:00,
2013-03-12 01:45:00,21.0,18.0,29.89,WSW,251,0.0,1.0,89,0.00,,,0.00,weatherlink.com 1.10,2013-03-12 06:45:00,
2013-03-12 02:15:00,22.3,20.0,29.91,NNW,333,0.0,3.0,89,0.00,,,0.00,weatherlink.com 1.10,2013-03-12 07:15:00,
2013-03-12 02:30:00,22.6,20.0,29.91,NNW,333,0.0,2.0,89,0.00,,,0.00,weatherlink.com 1.10,2013-03-12 07:30:00,
2013-03-12 02:45:00,22.8,20.0,29.91,NNW,333,0.0,3.0,90,0.00,,,0.00,weatherlink.com 1.10,2013-03-12 07:45:00,
2013-03-12 03:01:00,22.9,20.0,29.91,NNW,333,0.0,2.0,90,0.00,,,0.00,weatherlink.com 1.10,2013-03-12 08:01:00,
2013-03-12 03:15:00,22.3,20.0,29.91,NNW,333,0.0,2.0,89,0.00,,,0.00,weatherlink.com 1.10,2013-03-12 08:15:00,
2013-03-12 03:30:00,21.8,19.0,29.91,NNW,333,0.0,0.0,90,0.00,,,0.00,weatherlink.com 1.10,2013-03-12 08:30:00,
2013-03-12 03:45:00,21.8,19.0,29.91,NNW,333,0.0,0.0,90,0.00,,,0.00,weatherlink.com 1.10,2013-03-12 08:45:00,
2013-03-12 04:00:00,21.2,19.0,29.91,NNW,333,0.0,0.0,90,0.00,,,0.00,weatherlink.com 1.10,2013-03-12 09:00:00,
2013-03-12 04:15:00,21.2,19.0,29.91,NNW,333,0.0,0.0,91,0.00,,,0.00,weatherlink.com 1.10,2013-03-12 09:15:00,
2013-03-12 04:30:00,20.9,19.0,29.90,NNW,333,0.0,0.0,91,0.00,,,0.00,weatherlink.com 1.10,2013-03-12 09:30:00,
2013-03-12 04:45:00,20.4,18.0,29.90,NNW,333,0.0,0.0,91,0.00,,,0.00,weatherlink.com 1.10,2013-03-12 09:45:00,
2013-03-12 05:00:00,19.9,18.0,29.90,NNW,333,0.0,0.0,91,0.00,,,0.00,weatherlink.com 1.10,2013-03-12 10:00:00,
2013-03-12 05:15:00,19.8,18.0,29.90,NNW,333,0.0,0.0,92,0.00,,,0.00,weatherlink.com 1.10,2013-03-12 10:15:00,
2013-03-12 05:30:00,20.3,18.0,29.90,NNW,333,0.0,0.0,92,0.00,,,0.00,weatherlink.com 1.10,2013-03-12 10:30:00,
2013-03-12 05:46:00,20.4,19.0,29.91,NNW,333,0.0,0.0,93,0.00,,,0.00,weatherlink.com 1.10,2013-03-12 10:46:00,
2013-03-12 06:00:00,20.3,19.0,29.91,NNW,333,0.0,0.0,93,0.00,,,0.00,weatherlink.com 1.10,2013-03-12 11:00:00,
2013-03-12 06:16:00,20.6,19.0,29.92,NNW,333,0.0,0.0,93,0.00,,,0.00,weatherlink.com 1.10,2013-03-12 11:16:00,
2013-03-12 06:30:00,22.0,21.0,29.92,North,360,0.0,4.0,95,0.00,,,0.00,weatherlink.com 1.10,2013-03-12 11:30:00,
2013-03-12 06:45:00,24.2,23.0,29.93,WNW,285,0.0,5.0,93,0.00,,,0.00,weatherlink.com 1.10,2013-03-12 11:45:00,
2013-03-12 07:01:00,25.1,22.0,29.93,WNW,294,0.0,7.0,89,0.00,,,0.00,weatherlink.com 1.10,2013-03-12 12:01:00,
2013-03-12 07:15:00,25.3,22.0,29.93,WNW,291,1.0,4.0,88,0.00,,,0.00,weatherlink.com 1.10,2013-03-12 12:15:00,
2013-03-12 07:30:00,25.3,22.0,29.94,NNW,344,0.0,4.0,87,0.00,,,0.00,weatherlink.com 1.10,2013-03-12 12:30:00,
2013-03-12 07:46:00,25.3,22.0,29.95,NW,323,0.0,4.0,87,0.00,,,0.00,weatherlink.com 1.10,2013-03-12 12:46:00,
2013-03-12 08:01:00,26.8,23.0,29.95,North,5,1.0,9.0,85,0.00,,,0.00,weatherlink.com 1.10,2013-03-12 13:01:00,
2013-03-12 08:16:00,28.2,23.0,29.95,NNW,336,6.0,8.0,82,0.00,,,0.00,weatherlink.com 1.10,2013-03-12 13:16:00,
2013-03-12 08:30:00,28.6,24.0,29.96,NW,316,3.0,7.0,81,0.00,,,0.00,weatherlink.com 1.10,2013-03-12 13:30:00,
2013-03-12 08:46:00,29.3,24.0,29.97,NW,317,2.0,10.0,81,0.00,,,0.00,weatherlink.com 1.10,2013-03-12 13:46:00,
2013-03-12 09:01:00,29.5,24.0,29.98,NW,304,4.0,10.0,80,0.00,,,0.00,weatherlink.com 1.10,2013-03-12 14:01:00,
2013-03-12 09:16:00,30.0,24.0,29.98,NW,325,5.0,10.0,79,0.00,,,0.00,weatherlink.com 1.10,2013-03-12 14:16:00,
2013-03-12 09:31:00,30.3,24.0,29.99,WNW,303,5.0,10.0,78,0.00,,,0.00,weatherlink.com 1.10,2013-03-12 14:31:00,
2013-03-12 09:46:00,30.6,25.0,30.00,NW,321,0.0,10.0,78,0.00,,,0.00,weatherlink.com 1.10,2013-03-12 14:46:00,
2013-03-12 10:02:00,31.2,25.0,30.00,NNW,332,1.0,8.0,77,0.00,,,0.00,weatherlink.com 1.10,2013-03-12 15:02:00,
2013-03-12 10:31:00,32.1,25.0,30.00,NW,309,5.0,11.0,76,0.00,,,0.00,weatherlink.com 1.10,2013-03-12 15:31:00,
2013-03-12 10:46:00,32.3,25.0,30.01,NNW,339,3.0,12.0,74,0.00,,,0.00,weatherlink.com 1.10,2013-03-12 15:46:00,
2013-03-12 11:01:00,32.5,25.0,30.01,NW,325,6.0,17.0,75,0.00,,,0.00,weatherlink.com 1.10,2013-03-12 16:01:00,
2013-03-12 11:17:00,33.2,25.0,30.02,NNW,339,5.0,14.0,73,0.00,,,0.00,weatherlink.com 1.10,2013-03-12 16:17:00,
2013-03-12 11:31:00,33.4,26.0,30.03,NNW,341,5.0,20.0,73,0.00,,,0.00,weatherlink.com 1.10,2013-03-12 16:31:00,
2013-03-12 11:46:00,33.4,25.0,30.03,NNW,346,5.0,16.0,71,0.01,,,0.01,weatherlink.com 1.10,2013-03-12 16:46:00,
2013-03-12 12:16:00,33.3,26.0,30.05,WNW,296,6.0,15.0,73,0.01,,,0.01,weatherlink.com 1.10,2013-03-12 17:16:00,
2013-03-12 12:32:00,33.0,24.0,30.05,NW,319,4.0,16.0,70,0.01,,,0.01,weatherlink.com 1.10,2013-03-12 17:32:00,
2013-03-12 12:47:00,33.3,24.0,30.05,NNW,335,4.0,17.0,70,0.00,,,0.01,weatherlink.com 1.10,2013-03-12 17:47:00,
2013-03-12 13:01:00,32.8,25.0,30.06,West,260,6.0,13.0,72,0.00,,,0.01,weatherlink.com 1.10,2013-03-12 18:01:00,
2013-03-12 13:31:00,32.8,24.0,30.06,North,355,11.0,17.0,70,0.00,,,0.01,weatherlink.com 1.10,2013-03-12 18:31:00,
2013-03-12 13:47:00,33.1,24.0,30.07,NNW,342,5.0,14.0,70,0.01,,,0.02,weatherlink.com 1.10,2013-03-12 18:47:00,
2013-03-12 14:17:00,31.9,23.0,30.08,NNW,346,10.0,23.0,71,0.01,,,0.02,weatherlink.com 1.10,2013-03-12 19:17:00,
2013-03-12 14:31:00,31.6,24.0,30.08,NNW,330,3.0,17.0,72,0.01,,,0.02,weatherlink.com 1.10,2013-03-12 19:31:00,
2013-03-12 14:46:00,31.5,23.0,30.08,NNW,330,4.0,18.0,71,0.00,,,0.02,weatherlink.com 1.10,2013-03-12 19:46:00,
2013-03-12 15:01:00,31.6,23.0,30.08,NNW,340,5.0,13.0,71,0.00,,,0.02,weatherlink.com 1.10,2013-03-12 20:01:00,
2013-03-12 15:16:00,31.9,23.0,30.08,NW,309,3.0,13.0,70,0.00,,,0.02,weatherlink.com 1.10,2013-03-12 20:16:00,
2013-03-12 15:31:00,32.0,23.0,30.09,NW,317,5.0,17.0,70,0.00,,,0.02,weatherlink.com 1.10,2013-03-12 20:31:00,
2013-03-12 15:47:00,31.8,23.0,30.09,North,360,4.0,15.0,69,0.00,,,0.02,weatherlink.com 1.10,2013-03-12 20:47:00,
2013-03-12 16:01:00,31.8,23.0,30.09,NNW,335,6.0,15.0,69,0.01,,,0.03,weatherlink.com 1.10,2013-03-12 21:01:00,
2013-03-12 16:17:00,31.4,23.0,30.09,NNW,338,11.0,15.0,70,0.01,,,0.03,weatherlink.com 1.10,2013-03-12 21:17:00,
2013-03-12 16:32:00,31.4,23.0,30.09,West,281,5.0,15.0,72,0.01,,,0.03,weatherlink.com 1.10,2013-03-12 21:32:00,
2013-03-12 16:47:00,31.4,23.0,30.10,NW,306,6.0,14.0,71,0.01,,,0.03,weatherlink.com 1.10,2013-03-12 21:47:00,
2013-03-12 17:01:00,31.2,22.0,30.10,NW,321,8.0,19.0,69,0.00,,,0.03,weatherlink.com 1.10,2013-03-12 22:01:00,
2013-03-12 17:32:00,31.0,22.0,30.11,NW,316,2.0,11.0,70,0.00,,,0.03,weatherlink.com 1.10,2013-03-12 22:32:00,
2013-03-12 17:47:00,30.7,22.0,30.11,WNW,298,0.0,14.0,71,0.00,,,0.03,weatherlink.com 1.10,2013-03-12 22:47:00,
2013-03-12 18:01:00,30.6,22.0,30.11,NNE,25,2.0,12.0,71,0.00,,,0.03,weatherlink.com 1.10,2013-03-12 23:01:00,
2013-03-12 18:16:00,30.4,22.0,30.11,NNW,335,2.0,15.0,70,0.00,,,0.03,weatherlink.com 1.10,2013-03-12 23:16:00,
2013-03-12 18:31:00,30.2,22.0,30.12,NNW,334,5.0,12.0,70,0.00,,,0.03,weatherlink.com 1.10,2013-03-12 23:31:00,
2013-03-12 18:46:00,30.0,22.0,30.12,NW,316,3.0,16.0,71,0.00,,,0.03,weatherlink.com 1.10,2013-03-12 23:46:00,
2013-03-12 19:02:00,29.8,21.0,30.12,NNW,327,9.0,15.0,70,0.00,,,0.03,weatherlink.com 1.10,2013-03-13 00:02:00,
2013-03-12 19:16:00,29.5,22.0,30.13,NNW,344,2.0,15.0,72,0.00,,,0.03,weatherlink.com 1.10,2013-03-13 00:16:00,
2013-03-12 19:47:00,29.2,22.0,30.14,NNW,333,0.0,7.0,74,0.00,,,0.03,weatherlink.com 1.10,2013-03-13 00:47:00,
2013-03-12 20:01:00,29.0,22.0,30.14,NW,306,2.0,8.0,74,0.00,,,0.03,weatherlink.com 1.10,2013-03-13 01:01:00,
2013-03-12 20:17:00,28.9,22.0,30.15,NNE,12,0.0,10.0,74,0.00,,,0.03,weatherlink.com 1.10,2013-03-13 01:17:00,
2013-03-12 20:31:00,28.4,21.0,30.15,NNW,330,0.0,8.0,75,0.00,,,0.03,weatherlink.com 1.10,2013-03-13 01:31:00,
2013-03-12 20:46:00,28.1,21.0,30.16,NNW,348,2.0,9.0,76,0.00,,,0.03,weatherlink.com 1.10,2013-03-13 01:46:00,
2013-03-12 21:17:00,27.7,21.0,30.16,NNW,327,4.0,5.0,77,0.00,,,0.03,weatherlink.com 1.10,2013-03-13 02:17:00,
2013-03-12 21:32:00,27.6,22.0,30.16,NNW,328,1.0,8.0,79,0.00,,,0.03,weatherlink.com 1.10,2013-03-13 02:32:00,
2013-03-12 21:47:00,27.5,22.0,30.16,NNW,327,4.0,7.0,79,0.00,,,0.03,weatherlink.com 1.10,2013-03-13 02:47:00,
2013-03-12 22:02:00,27.2,22.0,30.16,NNW,343,5.0,9.0,79,0.00,,,0.03,weatherlink.com 1.10,2013-03-13 03:02:00,
2013-03-12 22:17:00,26.8,21.0,30.17,NE,42,0.0,6.0,80,0.00,,,0.03,weatherlink.com 1.10,2013-03-13 03:17:00,
2013-03-12 22:32:00,26.4,21.0,30.17,NW,316,4.0,4.0,79,0.00,,,0.03,weatherlink.com 1.10,2013-03-13 03:32:00,
2013-03-12 22:47:00,25.9,20.0,30.17,NE,36,0.0,4.0,79,0.00,,,0.03,weatherlink.com 1.10,2013-03-13 03:47:00,
2013-03-12 23:01:00,25.5,20.0,30.18,North,350,0.0,8.0,80,0.00,,,0.03,weatherlink.com 1.10,2013-03-13 04:01:00,
2013-03-12 23:17:00,25.1,20.0,30.18,North,355,5.0,8.0,80,0.00,,,0.03,weatherlink.com 1.10,2013-03-13 04:17:00,
2013-03-12 23:32:00,24.8,19.0,30.18,WNW,302,0.0,5.0,80,0.00,,,0.03,weatherlink.com 1.10,2013-03-13 04:32:00,
2013-03-12 23:47:00,24.3,19.0,30.19,NNW,342,0.0,3.0,81,0.00,,,0.03,weatherlink.com 1.10,2013-03-13 04:47:00,